Location: Calvin Observatory
(42.9309°N, 85.5886°W)
Time: 15:00:07
(UTC-05:00)

ISS - Visible Passes

Search period start: 01 March 2017 00:00
Search period end: 11 March 2017 00:00
Orbit: 400 x 410 km, 51.6° (Epoch: 02 March)

Date Brightness Start Highest point End Pass type
(mag) Time Alt. Az. Time Alt. Az. Time Alt. Az.
01 Mar -0.4 06:05:05 10° SSE 06:06:58 14° SE 06:08:53 10° E visible
03 Mar -1.7 05:56:05 12° SSW 05:58:48 32° SE 06:01:49 10° ENE visible
04 Mar -0.9 05:06:28 18° SE 05:06:46 18° SE 05:09:06 10° E visible
04 Mar -3.2 06:39:41 10° WSW 06:42:58 60° NNW 06:46:15 10° NE visible
05 Mar -3.3 05:49:21 32° SW 05:50:43 77° SE 05:54:02 10° ENE visible
06 Mar -1.6 04:59:26 33° E 04:59:26 33° E 05:01:42 10° ENE visible
06 Mar -2.3 06:32:06 10° W 06:35:06 33° NNW 06:38:09 10° NE visible
07 Mar -3.0 05:42:03 41° WNW 05:42:44 50° NNW 05:45:59 10° NE visible
08 Mar -1.4 04:51:56 30° NE 04:51:56 30° NE 04:53:45 10° NE visible
08 Mar -1.6 06:24:35 10° WNW 06:27:17 23° NNW 06:30:00 10° NE visible
09 Mar -2.1 05:34:23 28° NW 05:34:49 29° NNW 05:37:47 10° NE visible
10 Mar -1.0 04:44:07 22° NE 04:44:07 22° NE 04:45:36 10° NE visible
10 Mar -1.2 06:17:04 10° NW 06:19:30 19° N 06:21:56 10° NE visible
